Location: Cambria Heights
(40.6945°N, 73.7385°W)
Time: 20:48:39
(UTC+00:00)

Daily predictions for brighter satellites

Satellite Brightness Start Highest point End
(mag) Time Altitude Azimuth Time Altitude Azimuth Time Altitude Azimuth
Cosmos 2219 3.5 22:21:24 10° SSW 22:27:00 72° WNW 22:32:39 10° NNE
Cosmos 2082 4.1 22:21:58 10° S 22:27:13 43° ESE 22:32:31 10° NE
Cosmos 1340 Rocket 3.3 22:28:57 10° NNW 22:32:55 68° W 22:36:53 10° S
Cosmos 2297 Rocket 2.3 22:28:09 10° SSW 22:33:48 90° WNW 22:39:30 10° NNE
Cosmos 962 Rocket 4.5 22:27:45 10° S 22:33:49 75° E 22:40:00 10° N
Envisat 3.0 22:29:22 10° SSE 22:34:22 64° ENE 22:39:25 10° N
Meteor 2-10 Rocket 4.0 22:30:22 10° N 22:35:13 37° ENE 22:39:53 10° SE
Cosmos-2242 3.3 22:32:58 10° N 22:37:06 44° ENE 22:41:10 10° SSE
SMAP 3.5 22:32:43 10° S 22:37:20 70° WSW 22:42:00 10° NNW
SKYMED 2 4.0 22:33:41 10° NNE 22:37:48 40° E 22:41:54 10° S
YAOGAN 6 2.9 22:36:12 10° SSE 22:39:43 45° ENE 22:43:13 10° N
Cosmos 1980 4.0 22:34:47 10° NNW 22:40:30 77° WSW 22:46:09 10° SSE
Cosmos 1812 Rocket 4.5 22:40:00 10° NNW 22:44:23 55° W 22:48:44 10° S
DELTA 2 R/B (1) 3.7 22:40:50 10° W 22:46:26 81° S 22:52:03 10° E
Cosmos 2227 Rocket 2.4 22:41:15 10° SSW 22:46:53 78° WNW 22:52:35 10° NNE
Iridium 96 3.9 22:45:21 10° NNE 22:47:42 43° E 22:50:11 10° SSE
Meteor 1-21 Rocket 4.3 22:44:48 10° S 22:50:24 87° W 22:56:09 10° N
YAOGAN 1 3.3 22:47:14 10° SE 22:51:01 31° ENE 22:54:50 10° N
ISS -2.3 22:50:18 10° W 22:53:22 31° NNW 22:56:22 10° NE
FengYun 1-2 T 4.2 22:51:45 10° SSE 22:57:20 71° ENE 23:02:59 10° N
Cosmos 1703 3.4 22:55:18 10° S 22:59:10 54° E 23:03:03 10° NNE
Cosmos 1727 Rocket 4.4 22:53:52 10° N 22:59:38 40° ENE 23:05:22 10° SE
SL-8 Rocket 4.0 22:55:46 10° S 23:02:04 82° E 23:08:21 10° N
USA 267 4.3 23:08:16 10° NE 23:14:05 36° NNW 23:19:54 10° W
SWAS 4.4 23:10:44 10° SSW 23:14:59 66° ESE 23:18:44 13° NNE
Cosmos 1939 Rocket 3.2 23:11:57 10° SE 23:15:36 40° ENE 23:19:21 10° N
CSL-04 Debris 4.2 23:11:35 10° SSE 23:16:51 59° ENE 23:22:10 10° N
Ariane Rocket 3.9 23:13:51 10° ESE 23:17:59 26° ENE 23:22:08 10° N
SL-8 R/B 4.5 23:15:56 10° W 23:20:32 43° NNW 23:23:30 20° NE
Cosmos 1953 Rocket 4.1 23:17:03 10° SSW 23:21:28 62° W 23:25:56 10° N
Cosmos 1455 2.5 23:18:12 10° NNW 23:21:59 67° W 23:25:42 10° S
COSMO-SKYMED 1 3.2 23:21:38 10° N 23:25:54 57° WNW 23:30:08 10° SSW
CZ-2D R/B 3.3 23:23:08 10° SSE 23:26:52 55° ENE 23:30:38 10° N
Cosmos 1842 Rocket 3.8 23:24:20 10° N 23:28:39 45° ENE 23:32:57 10° SSE
NOSS 3-2 (A) 4.4 23:24:24 10° SSE 23:28:42 23° ESE 23:29:12 22° E
Shenzhou-11 Module 2.0 23:27:50 10° WNW 23:30:29 50° N 23:30:37 49° NNE
Cosmos 1821 Rocket 4.2 23:29:47 10° SSE 23:35:48 46° E 23:41:47 10° NNE
CSL-04 Rocket 3.7 23:32:50 10° SSE 23:38:20 88° ENE 23:43:56 10° NNW
BREEZE-M DEB (TANK) 2.6 23:36:06 10° SW 23:40:06 69° SSE 23:40:21 63° ESE
USA 234 3.8 23:41:02 10° SSE 23:47:25 57° SW 23:53:51 10° NW
CZ-4 R/B 2.9 23:50:01 10° SSW 23:53:46 37° W 23:57:39 10° NNW
